This is the latest recevied weather packets stored in our database for station/object S51UL-6. If no packets are shown the sender has not sent any weather packets the latest 10 day(s).
| Time | Temp. | Humidity | Pressure | Rain* | Wind** | Luminosity | Snow |
|---|---|---|---|---|---|---|---|
| 1788447662 | 29.44° C | 43% | 1019.5 hPa | 0 mm | - | - | - |
| 1788447362 | 30° C | 42% | 1019.6 hPa | 0 mm | - | - | - |
| 1788447062 | 30° C | 42% | 1019.5 hPa | 0 mm | - | - | - |
| 1788446762 | 30.56° C | 42% | 1019.7 hPa | 0 mm | - | - | - |
| 1788446462 | 30.56° C | 42% | 1019.4 hPa | 0 mm | - | - | - |
| 1788445862 | 31.11° C | 41% | 1019.7 hPa | 0 mm | - | - | - |
| 1788445562 | 31.11° C | 42% | 1019.6 hPa | 0 mm | - | - | - |
| 1788445265 | 31.11° C | 41% | 1019.7 hPa | 0 mm | - | - | - |
| 1788444963 | 31.11° C | 41% | 1019.9 hPa | 0 mm | - | - | - |
| 1788444662 | 31.11° C | 42% | 1019.7 hPa | 0 mm | - | - | - |
| 1788444062 | 30.56° C | 41% | 1019.9 hPa | 0 mm | - | - | - |
| 1788443764 | 31.11° C | 41% | 1020 hPa | 0 mm | - | - | - |
| 1788443162 | 31.11° C | 41% | 1020.1 hPa | 0 mm | - | - | - |
| 1788442862 | 31.67° C | 38% | 1020 hPa | 0 mm | - | - | - |
| 1788442263 | 32.22° C | 39% | 1020.1 hPa | 0 mm | - | - | - |
| 1788441963 | 32.22° C | 39% | 1020 hPa | 0 mm | - | - | - |
| 1788441663 | 32.78° C | 38% | 1020 hPa | 0 mm | - | - | - |
| 1788441363 | 32.78° C | 39% | 1019.9 hPa | 0 mm | - | - | - |
| 1788441064 | 32.78° C | 39% | 1020 hPa | 0 mm | - | - | - |
| 1788440768 | 32.78° C | 39% | 1020.2 hPa | 0 mm | - | - | - |
| 1788440463 | 32.78° C | 39% | 1019.9 hPa | 0 mm | - | - | - |
| 1788439563 | 32.78° C | 38% | 1020.2 hPa | 0.51 mm | - | - | - |
| 1788439263 | 32.78° C | 37% | 1020.2 hPa | 0.51 mm | - | - | - |
| 1788438963 | 33.33° C | 38% | 1020.1 hPa | 0.51 mm | - | - | - |
| 1788438363 | 33.89° C | 39% | 1020.2 hPa | 0.51 mm | - | - | - |
* Rain latest hour (hover to see other rain measurements)
** Current wind speed in m/s (hover to see current wind gust speed)